FW8582 Weather Reports


Display with metric or nautical units.
time (UTC)temp
F
wind
direction
speed
MPH
gust
MPH
rain 1hr
in
rain 24hr
in
rain mn
in
humidity
%
barometer
mb
20260503021545 45 0 0.0 0.0 0.00 0.06 0.06 97 1010.1
20260503020046 46 188 0.0 0.0 0.00 0.06 0.06 97 1010.3
20260503014548 46 0 0.0 0.0 0.00 0.06 0.06 96 1010.2
20260503013041 46 0 0.0 0.0 0.00 0.06 0.06 96 1010.3
20260503011540 46 0 0.0 0.0 0.00 0.06 0.06 96 1010.5
20260503010046 46 0 0.0 0.0 0.00 0.06 0.06 95 1010.3
20260503004545 47 0 0.0 0.0 0.00 0.06 0.06 95 1010.2
20260503003043 47 0 0.0 0.0 0.00 0.06 0.06 94 1010.1
20260503001543 47 0 0.0 0.0 0.00 0.06 0.06 94 1009.9
20260503000043 48 0 0.0 0.0 0.00 0.06 0.06 93 1009.9
20260502234547 48 0 0.0 1.0 0.00 0.06 0.06 93 1010.1
20260502233043 48 160 0.0 1.0 0.00 0.06 0.06 92 1010.0
20260502231552 48 0 0.0 1.0 0.00 0.06 0.06 92 1010.1
20260502230045 49 135 0.0 2.0 0.00 0.06 0.06 92 1010.0
20260502224542 49 188 0.0 2.0 0.00 0.06 0.06 92 1010.1
20260502223043 49 170 0.0 3.0 0.00 0.06 0.06 91 1010.0
20260502221540 49 231 1.0 3.0 0.00 0.06 0.06 90 1010.0
20260502220052 49 0 0.0 1.0 0.00 0.06 0.06 91 1009.9
20260502214545 49 117 0.0 3.0 0.00 0.06 0.06 91 1009.9
20260502213045 49 0 0.0 5.0 0.00 0.06 0.06 91 1009.9
20260502211546 49 0 0.0 5.0 0.00 0.06 0.06 91 1009.9
20260502210046 49 256 1.0 4.0 0.00 0.06 0.06 91 1009.9
20260502204549 49 274 2.0 8.0 0.00 0.06 0.06 91 1009.9
20260502203051 49 114 2.0 6.0 0.00 0.06 0.06 91 1009.9
20260502201546 49 157 1.0 6.0 0.00 0.06 0.06 91 1010.0
20260502200045 49 205 2.0 7.0 0.00 0.06 0.06 91 1010.3
20260502194543 48 0 2.0 6.0 0.00 0.06 0.06 92 1010.4
20260502193041 48 127 2.0 7.0 0.00 0.06 0.06 92 1010.8
20260502191540 48 220 2.0 7.0 0.00 0.06 0.06 92 1010.7
20260502190101 48 160 2.0 6.0 0.00 0.06 0.06 93 1010.9
20260502184555 48 103 3.0 7.0 0.01 0.06 0.06 94 1010.9
20260502183044 48 143 3.0 10.0 0.01 0.06 0.06 94 1011.2
20260502181543 48 136 2.0 8.0 0.02 0.06 0.06 94 1011.1
20260502180104 48 166 2.0 5.0 0.02 0.06 0.06 94 1011.1
20260502163039 49 141 2.0 6.0 0.02 0.02 0.02 89 1011.4
20260502161539 50 206 2.0 6.0 0.01 0.01 0.01 88 1011.5
20260502151555 52 150 1.0 3.0 0.00 0.00 0.00 78 1011.5
20260502123042 46 277 2.0 5.0 0.00 0.00 0.00 89 1012.3
20260502121543 46 250 0.0 5.0 0.00 0.00 0.00 90 1012.3
20260502114545 46 200 1.0 6.0 0.00 0.00 0.00 90 1011.9
20260502113044 45 0 0.0 4.0 0.00 0.00 0.00 90 1011.8
20260502111554 45 278 1.0 7.0 0.00 0.00 0.00 90 1011.8
20260502110048 44 104 0.0 4.0 0.00 0.00 0.00 90 1011.5
20260502104545 44 171 0.0 5.0 0.00 0.00 0.00 90 1011.5
20260502103050 44 201 1.0 5.0 0.00 0.00 0.00 90 1011.5
20260502101605 44 198 0.0 3.0 0.00 0.00 0.00 90 1011.2
20260502070044 45 0 1.0 3.0 0.00 0.00 0.00 80 1011.2
20260502064547 45 246 0.0 4.0 0.00 0.00 0.00 79 1011.3
20260502063042 46 231 0.0 4.0 0.00 0.00 0.00 78 1011.3
20260502061539 46 0 1.0 6.0 0.00 0.00 0.00 76 1011.5
20260502060047 47 212 2.0 8.0 0.00 0.00 0.00 74 1011.6
20260502054547 47 262 2.0 8.0 0.00 0.00 0.00 72 1011.6
20260502053053 48 227 2.0 9.0 0.00 0.00 0.00 71 1011.8
20260502051555 48 243 4.0 10.0 0.00 0.00 0.00 71 1011.9
20260502050042 47 231 2.0 7.0 0.00 0.00 0.00 72 1011.8
20260502044541 47 155 1.0 5.0 0.00 0.00 0.00 73 1011.9
20260502043051 48 229 2.0 6.0 0.00 0.00 0.00 72 1012.0
20260502041546 48 0 2.0 8.0 0.00 0.00 0.00 73 1012.0
20260502040049 48 213 1.0 5.0 0.00 0.00 0.00 73 1012.1
20260502034551 48 219 1.0 6.0 0.00 0.00 0.00 73 1012.1
20260502033047 48 272 1.0 5.0 0.00 0.00 0.00 74 1012.3
20260502031543 48 287 2.0 7.0 0.00 0.00 0.00 74 1012.1
20260502030040 48 228 1.0 4.0 0.00 0.00 0.00 73 1012.2
20260502024539 48 233 1.0 2.0 0.00 0.00 0.00 72 1012.0
20260502023040 48 220 1.0 5.0 0.00 0.00 0.00 72 1012.0